Regional Weather Roundup
Issued by NWS

Home | Current Version | Previous Version | Text Only | Print | Product List | Glossary Off
Versions: 1 2 3 4 5 6 7 8 9 10 11 12 13 14 15 16 17 18 19 20 21 22 23 24 25 26 27 28 29 30 31 32 33 34 35 36 37 38 39 40 41 42 43 44 45 46 47 48 49 50

000
ASUS43 KLMK 191902
RWRKY
KENTUCKY REGIONAL WEATHER ROUNDUP
NATIONAL WEATHER SERVICE LOUISVILLE KY
200 PM EST FRI DEC 19 2014

NOTE "FAIR" INDICATES FEW OR NO CLOUDS BELOW 12,000 FEET
WITH NO SIGNIFICANT WEATHER AND/OR OBSTRUCTIONS TO VISIBILITY.

KYZ001>023-026-027-061>063-070>075-192000-
WESTERN AND SOUTH CENTRAL KENTUCKY

CITY           SKY/WX    TMP DP  RH WIND       PRES   REMARKS
PADUCAH        PTSUNNY   40  29  64 CALM      30.28R
HENDERSON      MOSUNNY   36  25  64 N5        30.26F WCI  32
OWENSBORO      PTSUNNY   37  26  65 NE6       30.26F WCI  32
HOPKINSVILLE   CLOUDY    38  28  69 VRB2      30.25S
BOWLING GREEN  PTSUNNY   38  27  64 E6        30.24F WCI  33
GLASGOW        NOT AVBL
$$

KYZ024-025-028>034-038-045-046-053-192000-
NORTH CENTRAL KENTUCKY

CITY           SKY/WX    TMP DP  RH WIND       PRES   REMARKS
LOUISVILLE/SDF CLOUDY    35  23  61 N5        30.26F WCI  31
LOUISVILLE/LOU PTSUNNY   34  23  64 N5        30.27F WCI  30
FORT KNOX      PTSUNNY   36  24  63 VRB2      30.23F
$$

KYZ035>037-039>044-047>052-055>060-089>105-192000-
NORTHEAST KENTUCKY

CITY           SKY/WX    TMP DP  RH WIND       PRES   REMARKS
LEXINGTON      PTSUNNY   33  23  66 VRB3      30.25S
COVINGTON      CLOUDY    30  19  63 CALM      30.25F
FRANKFORT      PTSUNNY   33  22  63 CALM      30.25F
$$

KYZ054-064>069-076>088-106>120-192000-
SOUTHEAST KENTUCKY

CITY           SKY/WX    TMP DP  RH WIND       PRES   REMARKS
JACKSON        PTSUNNY   36  23  59 E3        30.20F
LONDON         CLOUDY    39  25  57 CALM      30.20F
SOMERSET       NOT AVBL
MIDDLESBORO    NOT AVBL
MONTICELLO     CLOUDY    39  27  62 NE6       30.23F WCI  35
$$



USA.gov is the U.S. government's official web portal to all federal, state and local government web resources and services.